www.pogodaiklimat.ru

Погода и климат >> Архив погоды >> Италия >> Бергамо


ПОГОДА в Бергамо

  • Прогноз погоды в Бергамо
  • Монитор погоды в Бергамо

АРХИВ ПОГОДЫ в Бергамо

Время (UTC), дата Ветер
(напр.,м/с)
 
Видим.   Явления Облачность Т
(С)
Тd
(С)
f
(%)
Тe
(С)
Тes
(С)
Комфортность P
(гПа)
Po
(гПа)
Тmin
(С)
Tmax
(С)
R
(мм)
R24
(мм)
S
(см)
18 11.09 Ю 2 30 км 3/0
[Ac und]
+22.0 +12.8 56 +25 +25 комфорт 1022.2 993.7 +25.0
21 11.09 С 2 25 км ясно +18.0 +14.6 81 +19 +19 1024.5 996.0
00 12.09 С 2 25 км ясно +16.7 +14.6 87 +17 +17 1025.0 996.5
03 12.09 С 2 25 км ясно +15.3 +14.4 94 +15 +15 1025.9 997.3
06 12.09 С 2 20 км 1/0
[Cs]
+15.9 +14.4 91 +16 +17 1027.7 999.1 +14.7
09 12.09 25 км 3/0
[Cs]
+23.3 +13.3 53 1029.5 1000.8
12 12.09 15 км ясно +25.9 +13.6 47 1029.6 1000.9
15 12.09 ЮЗ 2 20 км ясно +26.5 +12.9 43 +28 +33 жарко 1028.6 1000.0
18 12.09 Ю 2 20 км ясно +23.9 +14.0 54 +26 +26 жарко 1028.9 1000.2 +27.2
21 12.09 С 2 30 км ясно +18.7 +15.3 81 +20 +20 1029.8 1001.2
00 13.09 С 2 30 км ясно +18.2 +14.8 81 +19 +19 1029.9 1001.2
03 13.09 С 3 30 км ясно +16.7 +15.0 90 +17 +17 1030.4 1001.7
06 13.09 С 2 10 км ясно +17.5 +15.2 86 +18 +19 1031.1 1002.4 +16.1
09 13.09 ЮЗ 1 10 км ясно +24.1 +14.2 54 +27 +36 жарко 1031.7 1003.0
12 13.09 ЮВ 1 12 км ясно +26.5 +14.1 46 +29 +42 жарко 1030.0 1001.4
15 13.09 Ю 1 н/о н/о +27.2 +14.0 44 +29 +29 жарко 1028.6 1000.0
18 13.09 10 км ясно +22.2 +15.1 64 1028.5 999.8 +27.9
21 13.09 С 2 12 км ясно +19.6 +16.5 82 +22 +22 комфорт 1029.7 1001.0
00 14.09 СВ 2 600 м н/о +17.8 +16.7 93 +19 +19 1029.4 1000.8
03 14.09 С 2 15 км ясно +17.4 +16.2 93 +18 +18 1028.6 1000.0
06 14.09 С 2 н/о н/о +17.6 +16.2 91 +18 +18 1029.4 1000.8 +16.4
09 14.09 15 км ясно +24.8 +16.7 61 1029.9 1001.2
12 14.09 ЮВ 2 8000 м дымка ясно +26.1 +15.9 53 +29 +40 жарко 1028.9 1000.2
15 14.09 ЮВ 2 8000 м дымка ясно +26.9 +16.6 53 +30 +35 душно 1027.2 998.6
18 14.09 нст 1 8000 м дымка ясно +22.5 +15.5 65 +26 +26 жарко 1027.1 998.5 +27.4
21 14.09 С 2 10 км ясно +19.3 +16.8 85 +22 +22 комфорт 1028.1 999.5
00 15.09 С 1 10 км ясно +20.0 +16.5 80 +24 +24 комфорт 1027.5 998.9
03 15.09 С 2 н/о н/о +18.5 +17.0 91 +20 +20 1026.3 997.7
06 15.09 С 2 9000 м 6/6 1500 м
[Sc]
+19.0 +17.1 89 +21 +21 комфорт 1026.5 997.9 +17.9
09 15.09 9000 м 6/6 1500 м
[Sc]
+22.1 +16.8 72 1027.1 998.5
12 15.09 нст 1 10 км 3/3 1500 м
[Sc]
+24.6 +17.0 63 +28 +37 душно 1025.3 996.8
15 15.09 10 км ясно +26.6 +15.7 51 1022.7 994.2
18 15.09 10 км ясно +22.3 +16.9 71 1022.5 994.0 +27.2
21 15.09 С 3 10 км ясно +19.8 +18.1 90 +23 +23 комфорт 1022.8 994.3
00 16.09 С 2 10 км ясно +18.9 +18.0 95 +21 +21 комфорт 1021.8 993.3
03 16.09 С 2 8000 м 5/5 1500 м
[Sc]
+18.8 +18.0 95 +21 +21 комфорт 1021.1 992.6
06 16.09 С 2 7000 м дымка ясно +18.1 +17.5 96 +19 +19 1020.6 992.1 +17.8
09 16.09 7000 м дымка ясно +23.5 +16.5 65 1020.7 992.2
12 16.09 З 3 8000 м дымка ясно +26.7 +17.7 58 +31 +41 душно 1018.9 990.5
15 16.09 8000 м дымка ясно +27.6 +17.2 53 1016.8 988.4
18 16.09 Ю 1 7000 м дымка ясно +24.9 +17.5 63 +29 +29 душно 1016.6 988.2 +28.0
21 16.09 С 2 10 км ясно +20.6 +19.2 92 +26 +26 душно 1017.4 989.0
00 17.09 С 1 6000 м дымка ясно +19.9 +18.9 94 +24 +24 комфорт 1016.8 988.4
03 17.09 н/о н/о +18.9 +18.5 98 1016.1 987.7
06 17.09 С 1 3500 м дымка 5/5 1170 м
[Sc]
+18.8 +18.4 98 +21 +21 комфорт 1016.2 987.9 +18.0
09 17.09 ЮЗ 1 4500 м дымка ясно +23.8 +17.7 69 +28 +37 душно 1016.3 987.9
12 17.09 ЮЗ 3 15 км дымка ясно +27.0 +17.0 54 +31 +40 душно 1014.5 986.2
15 17.09 12 км ясно +28.5 +18.0 53 1013.0 984.7
18 17.09 ЮЗ 2 15 км дымка ясно +25.7 +16.8 58 +29 +29 душно 1013.0 984.7 +28.8
21 17.09 СЗ 2 20 км ясно +22.1 +18.9 82 +27 +27 душно 1014.3 985.9
00 18.09 С 1 25 км ясно +19.1 +19.1 100 +22 +22 комфорт 1014.3 986.0
03 18.09 С 2 11 км ясно +19.5 +19.4 99 +23 +23 комфорт 1014.5 986.1
06 18.09 СЗ 1 2000 м дымка 5/5 1020 м
[Sc]
+20.0 +19.0 94 +24 +25 комфорт 1015.8 987.4 +18.5
09 18.09 нст 1 7000 м дымка 6/3 1050 м
[Sc Ac As]
+23.7 +17.9 70 +28 +32 душно 1016.6 988.3
12 18.09 нст 1 7000 м дымка 8/8 900 м
[Cu med, cong As op]
+25.1 +18.3 66 +30 +32 душно 1016.5 988.1
15 18.09 нст 1 8000 м дымка 4/0
[Ac trans]
+25.2 +17.5 62 +29 +32 душно 1015.1 986.8

 

Местоположение метеостанции Бергамо (Италия): широта 45.67 долгота 9.70 высота над уровнем моря 237 м.

В архиве по умолчанию представлена погода в Бергамо за последнюю неделю. Архивные данные за месяц целиком и за предыдущие месяцы, начиная с января 2011 года, Вы можете получить, выбрав интересующий диапазон дат из раскрывающегося списка и нажав кнопку "Ввод!".


*Определитесь, кто Вы:
робот инопланетянин человек

Внимание! Время в таблицах - всемирное. Для получения местного времени необходимо прибавить поправку, которая равна 1 ч.

Смотрите также архив погоды в соседних городах и на ближайших метеорологических станциях:

Погода в Милане (Италия) (42 км)
Погода в Брешиа (Италия) (53 км)
Погода на Монте-Дженеросо (Швейцария) (60 км)
Погода в Стабио (Швейцария) (63 км)
Погода в Дезенцано (Италия) (66 км)
Погода в Лугано (Швейцария) (67 км)
Погода в Аэропорту Мальпенса (Италия) (76 км)
Погода в Гроно (Швейцария) (77 км)
Погода в Роббие (Швейцария) (81 км)
Погода в Новара (Италия) (82 км)

Пояснения к столбцам:

Ветер - указаны скорость ветра в м/с - средняя за 10 мин, порывы в срок и между сроками (в фигурных скобках) и направление, откуда дует ветер: С - северный, СВ - северо-восточный, В - восточный, ЮВ - юго-восточный, Ю - южный, ЮЗ - юго-западный, З - западный, СЗ - северо-западный.
Видимость - горизонтальная дальность видимости в метрах или километрах. При видимости от 1 до 10 км при отсутствии осадков обычно наблюдается дымка, при ухудшении видимости до 1 км и менее - туман. В сухую погоду видимость может ухудшаться дымом, пылью или мглою.
Явления - указаны атмосферные явления, наблюдавшиеся в срок или в последний час перед сроком; фигурными скобками обозначены явления, наблюдавшиеся между сроками (за 1-3 часа до срока); квадратными скобками обозначены град или гололедные отложения с указанием их диаметра в мм.
Облачность - указаны через наклонную черту общая и нижняя облачность в баллах и высота нижней границы облаков в метрах; квадратными скобками обозначены формы облаков: Ci - перистые, Cs - перисто-слоистые, Cc - перисто-кучевые, Ac - высококучевые, As - высокослоистые, Sc - слоисто-кучевые, Ns - слоисто-дождевые, Cu - кучевые, Cb - кучево-дождевые. Подробнее классификацию облаков см. в Атласе облаков (PDF).
T - Температура воздуха - температура, измеренная на высоте 2 м над землей.
Td - Температура точки росы - температура, при понижении до которой содержащийся в воздухе водяной пар достигнет насыщения.
f - Относительная влажность воздуха - влажноcть воздуха, измеренная на высоте 2 м над землей.
Te - Эффективная температура - температура, которую ощущает одетый по сезону человек в тени. Характеристика душности погоды. При расчете учитывается влияние влажности воздуха и скорости ветра на теплоощущения человека.
Tes - Эффективная температура на солнце - температура, которую ощущает человек, с поправкой на солнечный нагрев. Характеристика знойности погоды. Зависит от высоты солнца над горизонтом, облачности и скорости ветра. Ночью, в пасмурную погоду, а также при ветре 12 м/с и более поправка равна нулю.
P - Атмосферное давление - приведенное к уровню моря атмосферное давление.
Po - Атмосферное давление - измеренное на уровне метеостанции атмосферное давление.
Tmin - Минимальная температура - минимум температуры воздуха на высоте 2 м над землей.
Tmax - Максимальная температура - максимум температуры воздуха на высоте 2 м над землей.
R - Количество осадков - Количество выпавших осадков за период времени, мм. При наведении курсора мыши на число - период времени, за который выпало указанное количество осадков.
R24 - Количество осадков - Количество выпавших осадков за 24 часа, мм.
S - Снежный покров - Высота снежного покрова, см. При наведении курсора мыши на число - состояние снежного покрова и степень покрытия местности в баллах.